[[{"header":{"parameterUnit":"m.s-1","parameterCategory":1,"la1":30.2991,"la2":30.254,"lo1":-89.0895,"lo2":-89.0444,"dy":0.0017,"dx":0.0017,"nx":28,"ny":28,"refTime":"2024-04-13T03:00:00:Z","depth":0,"parameterNumber":2,"parameterNumberName":"U-component_of_WINDS"},"data":[0,0,0,0,0,0,0,0,0,0,0,0,0,0,0,0,0,0,0,0,0,0,0,0,0,0,0,0,0,0,0,0,0,0,0,0,0,0,0,0,0,0,0,0,0,0,0,0,0,0,0,0,0,0,0,0,0,0,-1.9504,-1.9504,0,-1.9567,-1.9568,-1.9569,-1.9568,-1.9567,-1.9566,-1.9565,-1.9631,-1.9634,-1.9636,0,0,0,0,0,0,0,0,0,0,0,0,0,-1.9383,-1.9385,-1.9504,-1.9504,-1.9505,-1.9567,-1.9568,-1.9569,-1.9568,-1.9567,-1.9566,-1.9565,-1.963,-1.9633,-1.9636,0,0,0,0,0,0,0,0,0,0,0,0,0,-1.944,-1.9386,-1.9503,-1.9512,-1.9514,-1.9567,-1.9568,-1.9569,-1.9568,-1.9567,-1.9566,-1.9565,-1.9629,-1.9633,-1.9637,-1.9686,0,0,-1.9648,-1.965,0,0,0,0,0,0,0,0,-1.9436,-1.9444,-1.951,-1.9512,-1.9513,-1.9558,-1.9549,-1.9608,-1.9569,-1.9548,-1.9565,-1.9564,-1.9608,-1.9613,-1.9628,-1.9689,-1.9692,-1.9649,-1.9651,-1.9653,-1.9654,0,0,0,0,0,0,0,-1.9432,-1.9441,-1.9529,-1.9511,-1.9513,-1.9513,-1.952,-1.9561,-1.9584,-1.9549,-1.9549,-1.9557,-1.9609,-1.9625,-1.963,-1.9693,-1.9649,-1.9652,-1.9654,-1.9656,-1.9796,-1.9798,0,0,0,0,0,0,-1.9426,-1.9438,-1.9527,-1.9531,-1.9471,-1.9517,-1.9524,-1.9545,-1.9584,-1.9588,-1.9558,-1.9557,-1.9619,-1.9625,-1.9632,-1.9691,-1.9653,-1.9656,-1.9658,-1.9795,-1.9797,-1.9798,0,0,0,0,0,0,-1.9424,-1.9434,-1.9524,-1.9484,-1.9496,-1.952,-1.9544,-1.9547,-1.9563,-1.959,-1.9594,-1.957,-1.9618,-1.9627,-1.9672,-1.9694,-1.9658,-1.9661,-1.9793,-1.9795,-1.9797,-1.981,0,0,0,0,0,0,-1.942,-1.9433,-1.9452,-1.9485,-1.9498,-1.9563,-1.9545,-1.9549,-1.9569,-1.9568,-1.9602,-1.9607,-1.9618,-1.9667,-1.9676,-1.9698,-1.9664,-1.9791,-1.9794,-1.9797,-1.9808,-1.9813,-1.9817,0,0,0,0,0,-1.9416,-1.9453,-1.9453,-1.9464,-1.9522,-1.9564,-1.9572,-1.9583,-1.9571,-1.959,-1.9608,-1.9606,-1.969,-1.9671,-1.9682,-1.9705,-1.979,-1.9793,-1.9797,-1.9806,-1.9812,-1.9817,0,0,0,0,0,0,-1.9423,-1.9458,-1.9458,-1.9507,-1.9532,-1.9564,-1.9588,-1.9589,-1.9619,-1.9616,-1.963,-1.9638,-1.9683,-1.9699,-1.9677,-1.9755,-1.9739,-1.9744,-1.9742,-1.9748,-1.9752,-1.9747,-1.9668,0,0,0,0,0,-1.943,-1.9461,-1.949,-1.9531,-1.9544,-1.9564,-1.9583,-1.9589,-1.9617,-1.9628,-1.9649,-1.9675,-1.9708,-1.9729,-1.9761,-1.9811,-1.9818,-1.9833,-1.9837,-1.984,-1.9845,-1.9872,-1.9879,-1.9809,-1.9809,-1.9809,0,0,-1.9445,-1.9468,-1.9487,-1.9533,-1.9553,-1.9586,-1.9573,-1.9608,-1.9632,-1.9633,-1.9677,-1.9694,-1.9724,-1.9773,-1.9795,-1.9787,-1.9866,-1.9844,-1.9847,-1.9849,-1.9876,-1.9883,-1.9888,-1.9811,-1.9811,-1.981,0,0,-1.9488,-1.9509,-1.9545,-1.9566,-1.9597,-1.9611,-1.9619,-1.9651,-1.9662,-1.9706,-1.9708,-1.9737,-1.9793,-1.9815,-1.9833,-1.9886,-1.9885,-1.9896,-1.9918,-1.9944,-1.995,-1.9955,-1.9973,-1.9979,-1.99,-1.99,-1.99,0,-1.9503,-1.9551,-1.9563,-1.9598,-1.9618,-1.9621,-1.9657,-1.9677,-1.9717,-1.9731,-1.9723,-1.9793,-1.9814,-1.9867,-1.988,-1.9895,-1.9905,-1.9891,-1.9948,-1.9953,-1.9958,-1.9975,-1.9982,-1.9901,-1.9901,-1.9901,-1.9901,0,-1.9567,-1.9601,-1.9626,-1.9665,-1.9688,-1.9723,-1.9741,-1.9763,-1.9768,-1.9782,-1.9827,-1.9853,-1.9889,-1.9903,-1.9908,-1.9957,-1.9951,-1.9945,-1.9929,-1.9965,-1.9982,-1.9988,-1.9903,-1.9902,-1.9902,-1.9902,0,0,-1.9616,-1.9661,-1.9669,-1.9687,-1.9722,-1.9749,-1.9785,-1.982,-1.9838,-1.9867,-1.9897,-1.9944,-1.9939,-1.996,-1.9968,-1.9992,-2.0031,-1.9983,-1.9984,-1.999,-2.0085,-2.0088,-2.0096,-2.0031,-2.0032,-2.0033,-2.0082,0,-1.9662,-1.9725,-1.9737,-1.9792,-1.9823,-1.9826,-1.9858,-1.9883,-1.9897,-1.9926,-1.9943,-1.9976,-1.9967,-1.9979,-2.0003,-2.0021,-2.005,-2.0018,-2.0059,-2.006,-2.0049,-2.0105,-2.0108,-2.0153,-2.0089,-2.009,-2.0091,0,-1.9725,-1.9754,-1.9811,-1.9842,-1.9856,-1.9884,-1.9917,-1.9945,-1.9974,-1.9983,-2.0006,-2.0012,-2.0049,-2.0032,-2.0084,-2.0062,-2.008,-2.0091,-2.0093,-2.0097,-2.0077,-2.0108,-2.0168,-2.0174,-2.0101,-2.01,-2.01,0,-1.9753,-1.9807,-1.9848,-1.9863,-1.9901,-1.992,-1.9937,-1.9964,-1.9985,-2.0014,-2.0028,-2.0062,-2.008,-2.0106,-2.0121,-2.0107,-2.0171,-2.0156,-2.0179,-2.0179,-2.0192,-2.019,-2.0253,-2.0205,-2.0205,-2.0205,-2.0205,0,-1.9803,-1.9838,-1.9861,-1.9887,-1.9926,-1.994,-1.9979,-1.9995,-2.002,-2.0049,-2.0054,-2.0081,-2.0099,-2.0129,-2.0141,-2.0182,-2.019,-2.0198,-2.0201,-2.0197,-2.0196,-2.0208,-2.0205,-2.0207,-2.0206,-2.0206,-2.0206,0,-1.9841,-1.9858,-1.9903,-1.9935,-1.9944,-1.9971,-1.9999,-2.0024,-2.0038,-2.0075,-2.0084,-2.0108,-2.0143,-2.016,-2.0204,-2.0212,-2.0258,-2.0259,-2.0248,-2.0248,-2.0271,-2.0268,-2.0343,-2.0353,-2.0299,-2.03,-2.03,0,-1.9871,-1.9898,-1.9932,-1.9952,-1.9969,-2.0,-2.0021,-2.0036,-2.0058,-2.0093,-2.0114,-2.0149,-2.0178,-2.0234,-2.0255,-2.0289,-2.029,-2.0314,-2.0295,-2.0291,-2.0289,-2.0287,-2.0289,-2.0317,-2.0318,-2.0318,-2.0318,0,-1.9922,-1.993,-1.9959,-1.9992,-2.0017,-2.0043,-2.007,-2.0086,-2.0105,-2.0129,-2.0165,-2.0187,-2.0232,-2.0267,-2.0302,-2.032,-2.0322,-2.0324,-2.0331,-2.0327,-2.0319,-2.0323,-2.0256,-2.0322,-2.0322,-2.0322,-2.0321,-2.0321,-1.9957,-1.9981,-2.0009,-2.0041,-2.0063,-2.0087,-2.0112,-2.013,-2.016,-2.0197,-2.0205,-2.0242,-2.0271,-2.0318,-2.0337,-2.0367,-2.0362,-2.0372,-2.0375,-2.0377,-2.0377,-2.0315,-2.0374,-2.0374,-2.0374,-2.0374,-2.0373,0,-2.0008,-2.0026,-2.0056,-2.0092,-2.0118,-2.0119,-2.0148,-2.0169,-2.0202,-2.0229,-2.0257,-2.0298,-2.0332,-2.0356,-2.0391,-2.041,-2.0412,-2.0419,-2.0417,-2.0421,-2.0381,-2.037,-2.0417,-2.0417,-2.0417,-2.0417,-2.0417,-2.0417,-2.0037,-2.0077,-2.0088,-2.0139,-2.0157,-2.0194,-2.021,-2.0233,-2.0254,-2.0299,-2.0327,-2.0343,-2.0368,-2.0405,-2.0436,-2.0442,-2.0454,-2.0461,-2.0467,-2.0428,-2.0424,-2.0419,-2.041,-2.0463,-2.0463,-2.0504,-2.0505,-2.0505]},{"header":{"parameterUnit":"m.s-1","parameterCategory":1,"la1":30.2991,"la2":30.254,"lo1":-89.0895,"lo2":-89.0444,"dy":0.0017,"dx":0.0017,"nx":28,"ny":28,"refTime":"2024-04-13T03:00:00:Z","depth":0,"parameterNumber":3,"parameterNumberName":"V-component_of_WINDS"},"data":[0,0,0,0,0,0,0,0,0,0,0,0,0,0,0,0,0,0,0,0,0,0,0,0,0,0,0,0,0,0,0,0,0,0,0,0,0,0,0,0,0,0,0,0,0,0,0,0,0,0,0,0,0,0,0,0,0,0,3.3917,3.3917,0,3.3924,3.3924,3.3924,3.3873,3.3872,3.387,3.3869,3.3874,3.3876,3.3877,0,0,0,0,0,0,0,0,0,0,0,0,0,3.3861,3.3862,3.3917,3.3917,3.3918,3.3924,3.3924,3.3924,3.3873,3.3872,3.387,3.3868,3.3874,3.3876,3.3877,0,0,0,0,0,0,0,0,0,0,0,0,0,3.3878,3.3862,3.3917,3.3893,3.3891,3.3924,3.3924,3.3924,3.3874,3.3872,3.387,3.3868,3.3873,3.3876,3.3878,3.3933,0,0,3.3884,3.3885,0,0,0,0,0,0,0,0,3.3877,3.388,3.3897,3.3895,3.3893,3.3896,3.3906,3.3927,3.3874,3.388,3.3869,3.3867,3.3883,3.3884,3.389,3.3934,3.3934,3.3885,3.3886,3.3887,3.3887,0,0,0,0,0,0,0,3.3876,3.3879,3.392,3.3897,3.3895,3.3882,3.3882,3.3909,3.3893,3.388,3.3876,3.3878,3.3882,3.3888,3.389,3.3934,3.3884,3.3886,3.3888,3.3889,3.4022,3.4025,0,0,0,0,0,0,3.3878,3.3879,3.392,3.392,3.3879,3.3884,3.3884,3.3897,3.3893,3.389,3.3879,3.3875,3.3885,3.3887,3.389,3.3954,3.3887,3.3889,3.389,3.402,3.4023,3.4025,0,0,0,0,0,0,3.3877,3.3882,3.3919,3.3898,3.3902,3.3888,3.3902,3.3898,3.3904,3.3893,3.389,3.3889,3.3884,3.3887,3.3923,3.3953,3.389,3.3892,3.4018,3.4021,3.4024,3.4083,0,0,0,0,0,0,3.3876,3.3882,3.3903,3.3899,3.3903,3.3953,3.3904,3.39,3.3908,3.3903,3.3901,3.3899,3.3882,3.392,3.3925,3.3955,3.3893,3.4015,3.4019,3.4023,3.4078,3.4088,3.4097,0,0,0,0,0,3.3874,3.392,3.3905,3.391,3.393,3.3955,3.3957,3.3938,3.3911,3.3932,3.3925,3.3899,3.395,3.3924,3.3929,3.3961,3.4013,3.4018,3.4023,3.4074,3.4086,3.4096,0,0,0,0,0,0,3.3927,3.3919,3.3902,3.3948,3.3953,3.3946,3.3972,3.3951,3.3963,3.3957,3.3932,3.3932,3.3972,3.397,3.3942,3.4014,3.3976,3.3983,3.4014,3.4025,3.4034,3.4033,3.3895,0,0,0,0,0,3.3945,3.3966,3.3957,3.3999,3.4002,3.3987,3.3997,3.3981,3.3985,3.3986,3.3981,3.3985,3.4002,3.4014,3.4028,3.4078,3.4077,3.4103,3.4112,3.4119,3.4125,3.415,3.4161,3.4042,3.4042,3.4042,0,0,3.3981,3.3978,3.3993,3.4009,3.4011,3.4033,3.3988,3.4014,3.4029,3.399,3.4023,3.402,3.4023,3.4066,3.4085,3.4065,3.4157,3.4126,3.4132,3.4133,3.4156,3.4168,3.4178,3.4045,3.4045,3.4044,0,0,3.4057,3.4058,3.4092,3.4095,3.4098,3.4087,3.4096,3.4092,3.4089,3.4122,3.4093,3.4111,3.4141,3.4144,3.4149,3.4227,3.4203,3.4232,3.4279,3.4304,3.4313,3.4322,3.4348,3.4358,3.4238,3.4238,3.4238,0,3.41,3.4133,3.4112,3.4139,3.4147,3.4113,3.4147,3.415,3.4158,3.4164,3.4142,3.4178,3.4178,3.4221,3.424,3.4246,3.4254,3.4232,3.4314,3.4322,3.4329,3.4354,3.4365,3.4241,3.4241,3.4241,3.424,0,3.4186,3.4209,3.4236,3.4245,3.4255,3.4286,3.427,3.4283,3.4267,3.4259,3.4293,3.4291,3.4305,3.4314,3.4299,3.4355,3.4343,3.4318,3.428,3.4344,3.4368,3.4377,3.4246,3.4245,3.4244,3.4243,0,0,3.4296,3.4292,3.4303,3.4306,3.4307,3.4324,3.4353,3.4366,3.4378,3.4384,3.4407,3.4433,3.4411,3.4417,3.4401,3.4424,3.4484,3.4396,3.4396,3.4412,3.4545,3.4563,3.4574,3.4469,3.4471,3.4472,3.4544,0,3.4369,3.4418,3.44,3.4451,3.4471,3.4439,3.4464,3.4467,3.446,3.4476,3.4469,3.4487,3.4456,3.4459,3.448,3.4473,3.451,3.4467,3.4489,3.449,3.4489,3.4586,3.4605,3.4674,3.4553,3.4555,3.4556,0,3.4461,3.4472,3.4524,3.4521,3.4529,3.4552,3.4562,3.4578,3.4581,3.4574,3.4582,3.4562,3.4589,3.4552,3.4589,3.456,3.4568,3.4566,3.4568,3.4568,3.4526,3.4589,3.4695,3.4705,3.457,3.4569,3.4568,0,3.4535,3.4562,3.4596,3.46,3.4598,3.4615,3.4614,3.4615,3.4624,3.4634,3.4639,3.4652,3.4658,3.4669,3.4652,3.4627,3.4692,3.4653,3.4686,3.4687,3.4701,3.47,3.4809,3.4708,3.4708,3.4707,3.4707,0,3.4618,3.4651,3.4629,3.465,3.4686,3.4666,3.4701,3.4698,3.4698,3.4718,3.4691,3.471,3.4688,3.4704,3.4692,3.4724,3.4728,3.4723,3.4719,3.4725,3.4725,3.4729,3.4723,3.471,3.4709,3.4709,3.4708,0,3.4706,3.4693,3.4728,3.4723,3.4722,3.4749,3.4744,3.4763,3.4755,3.478,3.4785,3.4771,3.4789,3.4774,3.4792,3.4784,3.4826,3.4816,3.4825,3.4822,3.4856,3.4853,3.497,3.4984,3.4876,3.4877,3.4878,0,3.4759,3.4784,3.4782,3.4793,3.4794,3.4813,3.4822,3.4803,3.4813,3.4818,3.4836,3.4852,3.4864,3.4894,3.4886,3.4899,3.4889,3.4929,3.489,3.4895,3.4888,3.4886,3.4888,3.4936,3.4938,3.4939,3.494,0,3.4856,3.4848,3.4862,3.4875,3.4886,3.4895,3.4902,3.4912,3.4892,3.4906,3.4924,3.4933,3.4951,3.4967,3.4977,3.4976,3.4955,3.4952,3.496,3.4966,3.497,3.4967,3.4846,3.4949,3.4948,3.4948,3.4947,3.4947,3.4927,3.4947,3.4949,3.4965,3.4968,3.4975,3.4992,3.4986,3.5001,3.5014,3.5002,3.5024,3.5026,3.5038,3.5039,3.5056,3.5039,3.5051,3.5054,3.5057,3.5062,3.4968,3.5058,3.5058,3.5057,3.5057,3.5057,0,3.5021,3.502,3.5036,3.5046,3.5059,3.5038,3.5044,3.5056,3.5076,3.508,3.5092,3.5113,3.5128,3.5121,3.5134,3.5149,3.5139,3.5153,3.5151,3.5151,3.5077,3.5068,3.516,3.516,3.516,3.516,3.516,3.516,3.5071,3.5104,3.5097,3.513,3.5129,3.515,3.5156,3.5161,3.5164,3.5189,3.5201,3.5197,3.5196,3.5209,3.5222,3.5219,3.5225,3.5242,3.5236,3.5167,3.5156,3.5147,3.5138,3.5244,3.5244,3.5309,3.5309,3.531]}]]